Voltar ao catálogo

STARLINK-4365

AtivoComunicaçõesSSO
NORAD 53228·PAYLOAD·🇺🇸 United States

Lançado Jul 22, 2022 de Vandenberg Space Force Base

Loading…

Próximas Passagens (próximas 24 horas)

TLE

AtualizadoSource: CelesTrak SupGP

Época: Sep 14, 2026, 20:38 UTC

1 53228C 22084AR  26257.86020833 -.00031681  00000+0 -98306-3 0  2574
2 53228  97.2831 312.7706 0001389  95.1179 174.5521 15.33468009    16

Acompanhe STARLINK-4365 em tempo real com AllMySat

Download on the App Store